Regional Weather Roundup
Issued by NWS

Home | Current Version | Previous Version | Text Only | Print | Product List | Glossary On
Versions: 1 2 3 4 5 6 7 8 9 10 11 12 13 14 15 16 17 18 19 20 21 22 23 24 25 26 27 28 29 30 31 32 33 34 35 36 37 38 39 40 41 42 43 44 45 46 47 48 49 50
000
ASUS43 KLOT 061108
RWRIL

ILLINOIS REGIONAL WEATHER ROUNDUP
NATIONAL WEATHER SERVICE CHICAGO/ROMEOVILLE IL
500 AM CST FRI DEC 06 2019

NOTE: "FAIR" INDICATES FEW OR NO CLOUDS BELOW 12,000 FEET WITH NO
SIGNIFICANT WEATHER AND/OR OBSTRUCTIONS TO VISIBILITY.

* THESE STATIONS ARE NOT UNDER NWS QUALITY CONTROL. THEY ALSO MAY NOT
  REPORT WEATHER SUCH AS PRECIPITATION OR FOG.

ILZ001-002-007-009-015-016-024-061200-
NORTHWEST ILLINOIS

CITY           SKY/WX    TMP DP  RH WIND       PRES   REMARKS
MOLINE         CLOUDY    37  29  72 N13G24    30.13R WCI  29
STERLING*      CLOUDY    36  31  82 N17G24    30.12R WCI  26
SAVANNA*       MOCLDY    34  28  80 N13G26    30.14R WCI  25
$$

ILZ003-004-008-010-011-017-018-061200-
NORTH CENTRAL ILLINOIS

CITY           SKY/WX    TMP DP  RH WIND       PRES   REMARKS
ROCKFORD       MOCLDY    36  28  73 N18G28    30.12R WCI  26
FREEPORT*      CLOUDY    33  28  80 N15       30.14R WCI  23
ROCHELLE*      CLOUDY    35  31  87 N17G25    30.09R WCI  25
DE KALB*       CLOUDY    35  30  82 N21G33    30.08R WCI  23
PERU*          CLOUDY    37  32  84 N21       30.09R WCI  26
$$

ILZ005-006-012>014-019>023-061200-
NORTHEAST ILLINOIS

CITY           SKY/WX    TMP DP  RH WIND       PRES   REMARKS
CHICAGO-OHARE  CLOUDY    38  33  82 N17G28    30.05R WCI  28
CHICAGO-MIDWAY CLOUDY    40  33  76 N18G28    30.05R
SCHAUMBURG     NOT AVBL
AURORA         CLOUDY    37  32  82 N20G26    30.06R WCI  27
LANSING*       MOCLDY    40  36  83 N13G18    30.03R
JOLIET*        MOCLDY    40  38  93 N15G22    30.05R
WAUKEGAN       FAIR      34  26  72 N10G22    30.05R WCI  26
DUPAGE AIRPORT CLOUDY    37  31  78 N23G35    30.05R WCI  26
KANKAKEE*      FAIR      39  35  85 N10       30.03R WCI  32
WHEELING       CLOUDY    39  29  67 N16G30    30.07R WCI  30
MORRIS*        MOCLDY    37  34  88 N9G16     30.05R WCI  31
ROMEOVILLE*    CLOUDY    38  34  85 N21       30.04R WCI  28
NORTHERLY ISL    N/A     40  33  76 NW16        N/A
$$

LMZ740>746-061200-
SOUTHERN LAKE MICHIGAN

STATION/POSITION SKY/WX   TEMP    WIND        PRES    VSBY  WAVE
                          AIR SEA DIR/SP/G                  HT/PER
                          (F)     (DEG/KT/KT) (MB)    (MI)  (FT/S)
HARRISON CRIB              40     330/ 20/ 23   N/A
NORTHERLY ISL              40     340/ 11/ 21   N/A
CALUMET HARBOR             40     340/ 14/ 19 1016.0
MICHIGAN CITY              41     360/ 25/ 29   N/A
$$

ILZ025>027-034>036-040-047-049-050-058-095>099-061200-
WEST-CENTRAL ILLINOIS

CITY           SKY/WX    TMP DP  RH WIND       PRES   REMARKS
QUINCY         PTCLDY    35  30  82 N17G24    30.10R WCI  25
GALESBURG*     CLOUDY    36  33  87 W14G22    30.12R WCI  27
MACOMB*        CLOUDY    35  32  90 N20G26    30.13R WCI  24
JACKSONVILLE*  CLOUDY    41  36  81 NW16G25   30.06R
PITTSFIELD*    CLOUDY    40  37  89 NW15      30.08R
$$

ILZ028>032-037-038-041>044-048-051>054-059>061-061200-
CENTRAL ILLINOIS

CITY           SKY/WX    TMP DP  RH WIND       PRES   REMARKS
PONTIAC        FAIR      37  35  90 N13       30.06R WCI  29
BLOOMINGTON    CLOUDY    41  37  86 N14       30.04R
DECATUR        MOCLDY    46  37  71 W5        30.02R
PEORIA         CLOUDY    39  33  79 N13G25    30.08R WCI  31
LACON*         CLOUDY    37  33  87 N10G22    30.08R WCI  29
LINCOLN*       CLOUDY    43  39  86 NW3       30.04R
SPRINGFIELD    CLOUDY    46  36  68 N10       30.03R
TAYLORVILLE    MOCLDY    43  37  79 CALM      30.02S
$$

ILZ033-039-045-046-055>057-062-063-061200-
EAST-CENTRAL ILLINOIS

CITY           SKY/WX    TMP DP  RH WIND       PRES   REMARKS
CHAMPAIGN      MOCLDY    39  37  92 W7        30.02R WCI  34
DANVILLE*      FAIR      45  38  77 W6        29.99R
RANTOUL*       CLOUDY    41  38  88 W6        30.01R
MATTOON        CLOUDY    50  37  61 SW6       30.00R
PARIS*         CLOUDY    49  40  72 CALM      30.02S
$$

ILZ079-100>102-061200-
SOUTHWEST ILLINOIS

CITY           SKY/WX    TMP DP  RH WIND       PRES   REMARKS
ALTON          CLEAR     41  41  97 CALM      30.03R
BELLEVILLE     PTCLDY    45  40  84 CALM      30.01R
CAHOKIA*       MOCLDY    46  39  76 CALM      30.02R
SPARTA*        DRIZZLE   48  43  81 S7        30.03R
$$

ILZ064>066-069>071-074>076-080>082-084>086-088>090-092>094-061200-
SOUTH-CENTRAL ILLINOIS

CITY           SKY/WX    TMP DP  RH WIND       PRES   REMARKS
CARBONDALE     CLOUDY    47  41  80 SE3       30.03R
CAIRO*         CLOUDY    47  41  81 CALM      30.03S
EFFINGHAM*     CLOUDY    49  28  43 CALM      30.04S
MARION         DRIZZLE   48  41  76 CALM      30.04R
MT. VERNON     LGT RAIN  49  40  71 SW5       30.03S
CENTRALIA*     CLOUDY    49  43  79 S7        30.01S
SALEM*         RAIN      50  41  71 S5        30.02S
METROPOLIS*    CLOUDY    50  37  59 CALM      30.04S
$$

ILZ067-068-072-073-078-083-087-091-061200-
SOUTHEAST ILLINOIS

CITY           SKY/WX    TMP DP  RH WIND       PRES   REMARKS
LAWRENCEVILLE  LGT RAIN  45  39  79 CALM      30.05S
FLORA*         CLOUDY    45  41  87 CALM      30.03S
FAIRFIELD*     LGT RAIN  47  41  80 S3        30.03S
HARRISBURG*    CLOUDY    46  45  97 SE5       30.04S
ROBINSON*      CLOUDY    49  37  65 S6        30.04S
CARMI*         LGT RAIN  48  41  76 CALM      30.04F
$$

ABBREVIATIONS USED IN REMARKS
   TC - TEMPERATURE IN CELSIUS
  WCI - WIND CHILL INDEX
   HX - HEAT INDEX
  VSB - VISIBILITY
$$




USA.gov is the U.S. government's official web portal to all federal, state and local government web resources and services.